Weather History for KJZI - February, 2014

Change the Weather History Date:

Monday, February 17, 2014

  Actual Average (KCHS) Record (KCHS)
Temperature  
Mean Temperature 46 °F 52 °F  
Max Temperature 57 °F 63 °F 79 °F (1976)
Min Temperature 35 °F 41 °F 15 °F (1958)
Degree Days  
Heating Degree Days 19 13  
Month to date heating degree days 246  
Since 1 July heating degree days 1505  
Cooling Degree Days 0 0  
Month to date cooling degree days 0  
Year to date cooling degree days 2  
Moisture  
Dew Point 44 °F    
Average Humidity 88    
Maximum Humidity 100    
Minimum Humidity 63    
Precipitation  
Precipitation 0.00 in 0.10 in 2.93 in (1998)
Month to date precipitation 1.80  
Year to date precipitation 5.51  
Sea Level Pressure  
Sea Level Pressure 30.23 in    
Wind  
Wind Speed 4 mph (NE)    
Max Wind Speed 17 mph    
Max Gust Speed 23 mph    
Visibility 8 miles    
Events      
T = Trace of Precipitation, MM = Missing Value Source: NWS Daily Summary

Daily Weather History Graph

Daily Weather History Graph

Search for Another Location

Airport or City:

Trip Planner

Search our weather history database for the weather conditions in past years. The results will help you decide how hot, cold, wet, or windy it might be!

Date:

Astronomy

Feb. 17, 2014 Rise Set
Actual Time 7:01 AM EST 6:07 PM EST
Civil Twilight 6:35 AM EST 6:32 PM EST
Nautical Twilight 6:07 AM EST 7:01 PM EST
Astronomical Twilight 5:38 AM EST 7:29 PM EST
Moon 8:48 PM EST (2/17) 8:11 AM EST (2/17)
Length of Visible Light 11h 56m
Length of Day
11h 06m
Waning Gibbous, 93% of the Moon is Illuminated
Feb 17
Waning Gibbous
Feb 22
Last Quarter
Mar 1
New
Mar 8
First Quarter
Mar 16
Full

Hourly Weather History & Observations

Time (EST) Temp. Windchill Dew Point Humidity Pressure Visibility Wind Dir Wind Speed Gust Speed Precip Events Conditions
12:15 AM 46.4 °F - 44.6 °F 93% 30.17 in 10.0 mi Calm Calm - 0.00 in   Clear
12:35 AM 46.4 °F - 44.6 °F 93% 30.17 in 10.0 mi Calm Calm - 0.00 in   Clear
12:55 AM 44.6 °F - 42.8 °F 93% 30.17 in 10.0 mi Calm Calm - 0.00 in   Clear
1:15 AM 42.8 °F - 42.8 °F 100% 30.17 in 10.0 mi Calm Calm - 0.00 in   Clear
1:35 AM 42.8 °F - 42.8 °F 100% 30.17 in 10.0 mi Calm Calm - 0.00 in   Clear
1:55 AM 42.8 °F - 42.8 °F 100% 30.18 in 9.0 mi Calm Calm - 0.00 in   Clear
2:15 AM 42.8 °F - 42.8 °F 100% 30.17 in 8.0 mi Calm Calm - 0.00 in   Clear
2:35 AM 42.8 °F - 42.8 °F 100% 30.18 in 9.0 mi Calm Calm - 0.00 in   Clear
2:55 AM 41.0 °F - 41.0 °F 100% 30.18 in 5.0 mi Calm Calm - 0.00 in   Clear
3:15 AM 41.0 °F - 41.0 °F 100% 30.17 in 9.0 mi Calm Calm - 0.00 in   Clear
3:35 AM 39.2 °F - 39.2 °F 100% 30.18 in 9.0 mi Calm Calm - 0.00 in   Clear
3:55 AM 39.2 °F - 39.2 °F 100% 30.19 in 8.0 mi Calm Calm - 0.00 in   Clear
4:15 AM 39.2 °F - 39.2 °F 100% 30.19 in 10.0 mi Calm Calm - 0.00 in   Clear
4:35 AM 39.2 °F - 39.2 °F 100% 30.19 in 7.0 mi Calm Calm - 0.00 in   Clear
4:55 AM 39.2 °F - 39.2 °F 100% 30.19 in 10.0 mi Calm Calm - 0.00 in   Clear
5:15 AM 37.4 °F - 37.4 °F 100% 30.21 in 7.0 mi Calm Calm - 0.00 in   Clear
5:35 AM 37.4 °F - 37.4 °F 100% 30.21 in 10.0 mi Calm Calm - 0.00 in   Clear
5:55 AM 37.4 °F - 37.4 °F 100% 30.22 in 9.0 mi Calm Calm - 0.00 in   Clear
6:15 AM 37.4 °F - 37.4 °F 100% 30.22 in 9.0 mi Calm Calm - 0.00 in   Clear
6:35 AM 37.4 °F - 37.4 °F 100% 30.22 in 10.0 mi Calm Calm - 0.00 in   Clear
6:55 AM 35.6 °F - 35.6 °F 100% 30.23 in 10.0 mi Calm Calm - 0.00 in   Clear
7:15 AM 37.4 °F - 35.6 °F 93% 30.24 in 8.0 mi Calm Calm - 0.00 in   Clear
7:35 AM 35.6 °F - 35.6 °F 100% 30.24 in 9.0 mi Calm Calm - 0.00 in   Clear
7:55 AM 42.8 °F 38.6 °F 39.2 °F 87% 30.25 in 10.0 mi North 6.9 mph - 0.00 in   Clear
8:15 AM 44.6 °F 40.7 °F 42.8 °F 93% 30.26 in 10.0 mi North 6.9 mph - 0.00 in   Clear
8:35 AM 46.4 °F 42.9 °F 42.8 °F 87% 30.26 in 10.0 mi NE 6.9 mph - 0.00 in   Clear
8:55 AM 48.2 °F - 41.0 °F 76% 30.28 in 10.0 mi NE 10.4 mph - 0.00 in   Clear
9:15 AM 50.0 °F - 42.8 °F 76% 30.28 in 10.0 mi ENE 9.2 mph - 0.00 in   Clear
9:35 AM 51.8 °F - 42.8 °F 71% 30.28 in 10.0 mi NE 12.7 mph - 0.00 in   Clear
9:55 AM 51.8 °F - 42.8 °F 71% 30.29 in 10.0 mi ENE 10.4 mph - 0.00 in   Clear
10:15 AM 53.6 °F - 42.8 °F 67% 30.30 in 10.0 mi NE 11.5 mph - 0.00 in   Clear
10:35 AM 53.6 °F - 42.8 °F 67% 30.30 in 10.0 mi NE 11.5 mph - 0.00 in   Clear
10:55 AM 55.4 °F - 44.6 °F 67% 30.31 in 10.0 mi NE 12.7 mph 18.4 mph 0.00 in   Clear
11:15 AM 55.4 °F - 42.8 °F 63% 30.29 in 10.0 mi ENE 13.8 mph - 0.00 in   Clear
11:35 AM 55.4 °F - 42.8 °F 63% 30.29 in 10.0 mi NE 15.0 mph - 0.00 in   Clear
11:55 AM 55.4 °F - 42.8 °F 63% 30.28 in 10.0 mi NE 13.8 mph - 0.00 in   Clear
12:15 PM 55.4 °F - 44.6 °F 67% 30.28 in 10.0 mi NE 11.5 mph - 0.00 in   Clear
12:35 PM 55.4 °F - 44.6 °F 67% 30.28 in 10.0 mi NE 12.7 mph - 0.00 in   Partly Cloudy
12:55 PM 57.2 °F - 44.6 °F 63% 30.27 in 10.0 mi NE 13.8 mph - 0.00 in   Clear
1:15 PM 57.2 °F - 46.4 °F 67% 30.26 in 10.0 mi NE 13.8 mph - 0.00 in   Clear
1:35 PM 57.2 °F - 46.4 °F 67% 30.27 in 10.0 mi NE 13.8 mph 18.4 mph 0.00 in   Clear
1:55 PM 57.2 °F - 48.2 °F 72% 30.26 in 10.0 mi ENE 15.0 mph 18.4 mph 0.00 in   Clear
2:15 PM 57.2 °F - 48.2 °F 72% 30.26 in 9.0 mi NE 12.7 mph 19.6 mph 0.00 in   Clear
2:35 PM 57.2 °F - 48.2 °F 72% 30.25 in 8.0 mi NE 11.5 mph 18.4 mph 0.00 in   Clear
2:55 PM 55.4 °F - 48.2 °F 77% 30.25 in 8.0 mi ENE 15.0 mph 19.6 mph 0.00 in   Clear
3:15 PM 55.4 °F - 48.2 °F 77% 30.24 in 8.0 mi ENE 15.0 mph 18.4 mph 0.00 in   Clear
3:35 PM 53.6 °F - 46.4 °F 77% 30.24 in 7.0 mi NE 15.0 mph 21.9 mph 0.00 in   Clear
3:55 PM 53.6 °F - 46.4 °F 77% 30.25 in 7.0 mi ENE 12.7 mph - 0.00 in   Clear
4:15 PM 51.8 °F - 46.4 °F 82% 30.24 in 6.0 mi ENE 17.3 mph - 0.00 in   Haze
4:35 PM 53.6 °F - 48.2 °F 82% 30.24 in 5.0 mi ENE 12.7 mph - 0.00 in   Haze
4:55 PM 53.6 °F - 48.2 °F 82% 30.24 in 5.0 mi NE 11.5 mph 23.0 mph 0.00 in   Haze
5:15 PM 51.8 °F - 46.4 °F 82% 30.24 in 5.0 mi NE 12.7 mph - 0.00 in   Haze
5:35 PM 50.0 °F - 46.4 °F 87% 30.24 in 5.0 mi ENE 15.0 mph 18.4 mph 0.00 in   Mostly Cloudy
5:55 PM 48.2 °F - 46.4 °F 93% 30.24 in 5.0 mi NE 9.2 mph - 0.00 in   Mostly Cloudy
6:15 PM 48.2 °F - 46.4 °F 93% 30.23 in 4.0 mi NE 9.2 mph - 0.00 in   Mostly Cloudy
6:35 PM 46.4 °F 42.9 °F 46.4 °F 100% 30.23 in 5.0 mi ENE 6.9 mph - 0.00 in   Partly Cloudy
6:55 PM 46.4 °F 42.4 °F 46.4 °F 100% 30.23 in 5.0 mi NE 8.1 mph - 0.00 in   Partly Cloudy
7:15 PM 48.2 °F - 46.4 °F 93% 30.23 in 5.0 mi NE 9.2 mph - 0.00 in   Mostly Cloudy
7:35 PM 48.2 °F - 46.4 °F 93% 30.23 in 5.0 mi NE 8.1 mph - 0.00 in   Scattered Clouds
7:55 PM 48.2 °F - 46.4 °F 93% 30.23 in 5.0 mi NE 6.9 mph - 0.00 in   Clear
8:15 PM 48.2 °F - 46.4 °F 93% 30.23 in 5.0 mi Calm Calm - 0.00 in   Clear
8:35 PM 46.4 °F 43.5 °F 46.4 °F 100% 30.22 in 5.0 mi NE 5.8 mph - 0.00 in   Clear
8:55 PM 46.4 °F 42.4 °F 46.4 °F 100% 30.22 in 5.0 mi NE 8.1 mph - 0.00 in   Clear
9:15 PM 46.4 °F 42.9 °F 46.4 °F 100% 30.23 in 5.0 mi NE 6.9 mph - 0.00 in   Clear
9:35 PM 48.2 °F - 46.4 °F 93% 30.24 in 5.0 mi NE 8.1 mph - 0.00 in   Clear
9:55 PM 46.4 °F - 46.4 °F 100% 30.25 in 5.0 mi Calm Calm - 0.00 in   Clear
10:15 PM 46.4 °F 43.5 °F 46.4 °F 100% 30.25 in 5.0 mi NNE 5.8 mph - 0.00 in   Clear
10:35 PM 46.4 °F - 46.4 °F 100% 30.25 in 5.0 mi Calm Calm - 0.00 in   Clear
10:55 PM 46.4 °F - 46.4 °F 100% 30.24 in 5.0 mi Calm Calm - 0.00 in   Clear
11:15 PM 46.4 °F - 46.4 °F 100% 30.24 in 4.0 mi Calm Calm - 0.00 in   Scattered Clouds
11:35 PM 46.4 °F - 46.4 °F 100% 30.23 in 4.0 mi Calm Calm - 0.00 in   Overcast
11:55 PM 48.2 °F - 48.2 °F 100% 30.22 in 5.0 mi Calm Calm - 0.00 in   Overcast